User: anonymous   Login
Location: Kunchanapalle
(16.4623°N, 80.6176°E)
Time: 15:49:09
(UTC+00:00)
Language:

ADEOS - Orbit

View from above orbital plane
View from above orbital plane
View from above satellite
View from above satellite

Ground track
Ground track

The orbit data is extracted from the following two-line orbital elements,

1 24277U 96046A   20292.93692827 -.00000039 +00000-0 +29565-5 0  9993
2 24277 098.8883 270.6736 0001794 045.5815 314.5512 14.29454252260252
Epoch (UTC): 18 October 2020 22:29:10
Eccentricity: 0.0001794
inclination: 98.8883°
perigee height: 792 km
apogee height: 795 km
right ascension of ascending node: 270.6736°
argument of perigee: 45.5815°
revolutions per day: 14.29454252
mean anomaly at epoch: 314.5512°
orbit number at epoch: 26025

The dashed part of the orbit path shows where the satellite is in the earth's shadow,  

DLR